Location: Unspecified
(0.0000°N, 0.0000°E)
Time: 07:19:09
(UTC+00:00)

Tiros 1 despin weight - Pass Details

Date: 05 October 2023
Orbit: 583 x 627 km, 48.2° (Epoch: 05 December)

Event Time Altitude Azimuth Distance (km) Brightness Sun altitude
Rises 01:53:51 0° 338° (NNW) 2,783 - -58.4°
Reaches altitude 10° 01:56:19 10° 348° (NNW) 1,885 - -57.8°
Maximum altitude 02:00:08 31° 51° (NE) 1,032 - -56.8°
Drops below altitude 10° 02:03:58 10° 113° (ESE) 1,895 - -55.9°
Sets 02:06:26 0° 124° (ESE) 2,801 - -55.3°
